Home > Time Zones > World Clock > Weather > Norway > Moss > Past weeks

Flag for Norway Weather past 2 weeks in Moss, Norway

Now
45 °F

Sunny.


Feels Like: 39 °F
Forecast: 39 / 49 °F
Wind: 10 mph from South

Location: Rygge

Current Time: Apr 28, 2015 at 8:54:13 PM

Latest Report: Apr 28, 2015 at 8:20 PM


Visibility: 10 mi

Pressure: 29.83 "Hg

Humidity: 61%

Dew point: 32 °F

Location of MossLocation

Historic Weather in Moss — Graph

°F

Moss temperature yesterday

Maximum temperature yesterday: 48 °F (at 12:20 PM)
Minimum temperature yesterday: 28 °F (at 4:50 AM)
Average temperature yesterday: 39 °F

Past Weeks' High & Low Weather Summary

 TemperatureHumidityPressure
High68 °F (Apr 20, 12:50 PM)100% (Apr 14, 1:20 PM)30.36 "Hg (Apr 14, 1:20 PM)
Low28 °F (Apr 27, 4:50 AM)20% (Apr 23, 2:20 PM)29.39 "Hg (Apr 25, 11:50 PM)
Average47 °F61%29.89 "Hg
* Reported Apr 13 7:20 PM — Apr 28 7:50 PM, Moss, Weather by CustomWeather, © 2015

Note: Actual official high and low records may vary slightly from our data, if they occured in-between our weather recording intervals... More about our weather records

Advertising

Moss weather history for previous 24 hours

 ConditionsComfort  
Time TempWeatherWind HumidityBarometerVisibility
7:50 PM
Tue, Apr 28
45 °FSunny.13 mph61%29.83 "Hg10 mi
7:20 PM46 °FSunny.13 mph62%29.83 "Hg10 mi
6:50 PM46 °FPassing clouds.14 mph62%29.80 "HgN/A
6:20 PM46 °FSunny.14 mph57%29.80 "Hg10 mi
5:50 PM46 °FPassing clouds.14 mph57%29.80 "HgN/A
5:20 PM46 °FPassing clouds.15 mph53%29.80 "HgN/A
4:50 PM46 °FPassing clouds.15 mph62%29.80 "HgN/A
4:20 PM48 °FPassing clouds.15 mph58%29.80 "HgN/A
3:50 PM50 °FPassing clouds.15 mph43%29.80 "HgN/A
3:20 PM50 °FPassing clouds.14 mph47%29.80 "HgN/A
2:50 PM50 °FScattered clouds.13 mph47%29.80 "HgN/A
2:20 PM50 °FScattered clouds.10 mph47%29.80 "HgN/A
1:50 PM48 °FScattered clouds.12 mph50%29.80 "HgN/A
1:20 PM48 °FScattered clouds.12 mph58%29.80 "HgN/A
12:50 PM50 °FScattered clouds.7 mph58%29.80 "HgN/A
12:20 PM46 °FScattered clouds.3 mph57%29.80 "HgN/A
11:50 AM48 °FPassing clouds.5 mph54%29.77 "HgN/A
11:20 AM48 °FPassing clouds.2 mph58%29.77 "HgN/A
10:50 AM48 °FPassing clouds.1 mph58%29.77 "HgN/A
10:20 AM46 °FPassing clouds.2 mph66%29.77 "HgN/A
9:50 AM45 °FPassing clouds.3 mph71%29.77 "HgN/A
9:20 AM41 °FPassing clouds.5 mph81%29.77 "HgN/A
8:50 AM39 °FFog.2 mph93%29.77 "HgN/A
8:20 AM36 °FFog.2 mph93%29.74 "Hg0 mi
7:50 AM32 °FFog.1 mph100%29.74 "Hg0 mi
7:20 AM30 °FIce fog.2 mph100%29.71 "Hg0 mi
6:50 AM28 °FIce fog.2 mph100%29.71 "Hg0 mi
6:20 AM28 °FLight fog.No wind93%29.71 "HgN/A
5:50 AM28 °FLight snow. Passing clouds.1 mph100%29.71 "Hg0 mi
5:20 AM30 °FLight fog.2 mph93%29.71 "Hg0 mi
4:50 AM28 °FChilly.2 mph100%29.68 "Hg1 mi
4:20 AM28 °FChilly.5 mph100%29.68 "HgN/A
3:50 AM30 °FChilly.3 mph100%29.68 "HgN/A
3:20 AM32 °FChilly.2 mph93%29.68 "HgN/A
2:50 AM32 °FChilly.No wind100%29.68 "HgN/A
2:20 AM32 °FChilly.3 mph100%29.68 "HgN/A
1:50 AM32 °FChilly.3 mph93%29.65 "HgN/A
1:20 AM34 °FChilly.2 mph93%29.65 "HgN/A
12:50 AM34 °FChilly.2 mph93%29.65 "HgN/A
12:20 AM36 °FChilly.2 mph87%29.65 "HgN/A
11:50 PM
Mon, Apr 27
37 °FPassing clouds.2 mph87%29.65 "HgN/A
11:20 PM39 °FPassing clouds.5 mph81%29.65 "HgN/A
10:50 PM39 °FPassing clouds.3 mph81%29.65 "HgN/A
10:20 PM41 °FPartly cloudy.5 mph76%29.65 "HgN/A
9:20 PM41 °FScattered clouds.7 mph76%29.65 "HgN/A
8:50 PM43 °FScattered clouds.10 mph71%29.62 "HgN/A
8:20 PM43 °FBroken clouds.13 mph71%29.62 "HgN/A
Weather by CustomWeather, © 2015

See weather overviewHow to use our weather pages